#timestamp,LO_Frequency,Hit 
1499958015.7,286046957.1,N
1499958035.5,286046959.3,N
1499958055.3,286046958.9,N
1499958075.2,286046959.6,N
1499958095.9,286046959.6,N
1499958115.7,286046956.9,N
1499958135.6,286046958.9,N
1499958155.4,286046959.1,N
1499958175.2,286046958.4,N
1499958195.1,286046958.2,N
1499958196.0,286046958.2,N
1499958215.8,286046958.9,N
1499958235.6,286046959.0,N
1499958255.5,286046959.1,N
1499958275.3,286046957.1,N
1499958295.1,286046958.0,N
1499958315.8,286046956.0,N
1499958335.7,286046953.4,N
1499958355.5,286046953.4,N
1499958375.3,286046956.1,N
1499958395.2,286046955.9,N
1499958415.0,286046953.6,N
1499958415.9,286046953.6,N
1499958435.7,286046955.5,N
1499958455.6,286046956.1,N
1499958475.4,286046957.9,N
1499958495.2,286046958.9,N
1499958515.1,286046958.7,N
1499958516.0,286046958.7,N
1499958535.8,286046959.0,N
1499958555.6,286046958.1,N
1499958575.5,286046959.2,N
1499958595.3,286046957.4,N
1499958615.1,286046955.6,N
1499958635.9,286046953.8,N
1499958655.7,286046955.6,N
1499958675.5,286046954.2,N
1499958695.4,286046954.5,N
1499958715.2,286046954.1,N
1499958735.0,286046953.5,N
1499958735.9,286046953.5,N
1499958755.8,286046953.5,N
1499958775.6,286046953.5,N
1499958795.4,286046954.4,N
1499958815.2,286046954.7,N
1499958835.1,286046951.7,N
1499958836.0,286046951.7,N
1499958855.8,286046954.8,N
1499958875.6,286046951.8,N
1499958895.5,286046951.9,N
1499958915.3,286046954.2,N
1499958935.1,286046951.8,N
1499958955.9,286046953.0,N
1499958975.7,286046952.4,N
1499958995.5,286046952.3,N
1499959015.4,286046952.4,N
1499959035.2,286046952.4,N
1499959055.0,286046952.7,N
1499959055.9,286046952.7,N
1499959075.8,286046953.2,N
1499959095.6,286046953.0,N
1499959115.4,286046952.8,N
1499959135.3,286046951.3,N
1499959155.1,286046950.7,N
1499959156.0,286046950.7,N
1499959175.8,286046950.6,N
1499959195.7,286046950.9,N
1499959215.5,286046952.8,N
1499959235.3,286046952.8,N
1499959255.1,286046952.8,N
1499959275.9,286046952.8,N
1499959295.7,286046950.2,N
1499959315.5,286046951.4,N
1499959335.4,286046950.7,N
1499959355.2,286046951.0,N
1499959375.0,286046950.4,N
1499959375.9,286046950.4,N
1499959395.8,286046951.0,N
1499959415.6,286046950.3,N
1499959435.4,286046948.8,N
1499959455.3,286046948.5,N
1499959475.1,286046950.9,N
1499959476.0,286046950.9,N
1499959495.8,286046951.2,N
1499959515.7,286046952.7,N
1499959535.5,286046959.7,N
1499959555.3,286046963.7,N
1499959575.2,286046966.2,N
1499959595.9,286046967.5,N
1499959615.7,286046967.3,N
1499959635.5,286046968.9,N
1499959655.4,286046962.1,N
1499959675.2,286046960.7,N
1499959695.0,286046959.5,N
1499959695.9,286046959.5,N
1499959715.8,286046957.0,N
1499959735.6,286046957.9,N
1499959755.4,286046956.4,N
1499959775.3,286046955.6,N
1499959795.1,286046957.4,N
1499959815.8,286046959.4,N
1499959835.7,286046961.7,N
1499959855.5,286046964.1,N
1499959875.3,286046960.3,N
1499959895.2,286046961.0,N
1499959915.9,286046958.6,N
1499959935.7,286046958.6,N
1499959955.6,286046961.2,N
1499959975.4,286046958.9,N
1499959995.2,286046956.6,N
1499960015.1,286046955.0,N
1499960016.0,286046955.0,N
1499960035.8,286046955.1,N
1499960055.6,286046956.0,N
1499960075.5,286046954.1,N
1499960095.3,286046952.9,N
1499960115.1,286046951.9,N
1499960135.9,286046950.7,N
1499960155.7,286046950.7,N
1499960175.5,286046951.2,N
1499960195.3,286046948.6,N
1499960215.2,286046951.2,N
1499960235.0,286046948.9,N
1499960235.9,286046948.9,N
1499960255.7,286046948.6,N
1499960275.6,286046951.4,N
1499960295.4,286046948.7,N
1499960315.2,286046950.7,N
1499960335.1,286046951.6,N
1499960336.0,286046951.6,N
1499960355.8,286046949.0,N
1499960375.6,286046951.0,N
1499960395.5,286046948.5,N
1499960415.3,286046949.7,N
1499960435.1,286046950.0,N
1499960455.9,286046947.9,N
1499960475.7,286046948.3,N
1499960495.5,286046947.9,N
1499960515.4,286046947.5,N
1499960535.2,286046948.2,N
1499960555.0,286046945.3,N
1499960555.9,286046945.3,N
1499960575.8,286046948.4,N
1499960595.6,286046948.2,N
1499960615.4,286046945.9,N
1499960635.2,286046946.7,N
1499960655.1,286046946.4,N
1499960656.0,286046946.4,N
1499960675.8,286046946.8,N
1499960695.6,286046946.7,N
1499960715.5,286046945.6,N
1499960735.3,286046947.6,N
1499960755.1,286046946.4,N
1499960775.9,286046943.8,N
1499960795.7,286046945.1,N
1499960815.5,286046944.8,N
1499960835.4,286046945.1,N
1499960855.2,286046942.9,N
1499960875.0,286046942.3,N
1499960875.9,286046942.3,N
1499960895.8,286046940.9,N
1499960915.6,286046941.1,N
1499960935.4,286046940.7,N
1499960955.3,286046941.0,N
1499960975.1,286046940.8,N
1499960995.8,286046940.5,N
1499961015.7,286046943.1,N
1499961035.5,286046943.6,N
1499961055.3,286046941.1,N
1499961075.2,286046941.5,N
1499961095.9,286046941.9,N
1499961115.7,286046939.4,N
1499961135.6,286046939.8,N
1499961155.4,286046939.9,N
1499961175.2,286046939.1,N
1499961195.0,286046941.3,N
1499961195.9,286046941.3,N
1499961215.8,286046940.9,N
1499961235.6,286046940.9,N
1499961255.4,286046941.4,N
1499961275.3,286046941.2,N
1499961295.1,286046941.3,N
1499961315.8,286046941.6,N
1499961335.7,286046939.8,N
1499961355.5,286046940.3,N
1499961375.3,286046942.0,N
1499961395.2,286046940.9,N
1499961415.9,286046941.1,N
1499961435.7,286046938.9,N
1499961455.6,286046942.0,N
1499961475.4,286046941.9,N
1499961495.2,286046939.0,N
1499961515.0,286046940.2,N
1499961515.9,286046940.2,N
1499961535.8,286046940.3,N
1499961555.6,286046940.4,N
1499961575.4,286046938.0,N
1499961595.3,286046937.8,N
